Regional Weather Roundup
Issued by NWS Huntsville, AL

Home | Current Version | Previous Version | Text Only | Print | Product List | Glossary On
Versions: 1 2 3 4 5 6 7 8 9 10 11 12 13 14 15 16 17 18 19 20 21 22 23 24 25 26 27 28 29 30 31 32 33 34 35 36 37 38 39 40 41 42 43 44 45 46 47 48 49 50
000
ASUS44 KHUN 020024
RWRHUN

WEATHER ROUNDUP FOR THE TENNESSEE VALLEY
NATIONAL WEATHER SERVICE HUNTSVILLE AL
700 PM CDT FRI AUG 01 2014

ALZ001>004-020100-
NORTHWEST ALABAMA

CITY           SKY/WX    TMP DP  RH WIND       PRES   REMARKS
SHOALS AIRPORT CLEAR     83  66  56 CALM      30.02S
6HR MIN TEMP:  83; 6HR MAX TEMP:  86;

SHOALS TVA RES   N/A     81 N/A N/A MISG        N/A
$$

ALZ005>007-016-020100-
NORTH CENTRAL ALABAMA

CITY           SKY/WX    TMP DP  RH WIND       PRES   REMARKS
DECATUR AP     PTCLDY    82  69  64 NE5       30.01F
6HR MIN TEMP:  81; 6HR MAX TEMP:  87;

HUNTSVILLE AP  MOCLDY    81  65  58 N3        30.01F
6HR MIN TEMP:  79; 6HR MAX TEMP:  88; 6HR PCP: TRACE;

HUN NWS/UAH      N/A     77  67  71 SE1         N/A
MERIDIANVILLE  PTCLDY    73  64  73 CALM      30.02S
VINEMONT AP    FAIR      79  67  66 CALM      30.05S
$$

ALZ008>010-020100-
NORTHEAST ALABAMA

CITY           SKY/WX    TMP DP  RH WIND       PRES   REMARKS
ALBERTVILLE    PTCLDY    81  72  74 N3        30.02R
CROSSVILLE       N/A     77 N/A N/A CALM        N/A
FORT PAYNE     PTCLDY    79  64  61 E3        30.01F
SCOTTSBORO AP  CLEAR     81  68  65 N3        30.02S
SCOTTSBORO HCN   N/A     81 N/A N/A MISG        N/A
VALLEY HEAD      N/A     77 N/A N/A MISG        N/A
$$

TNZ076-096-097-020100-
SOUTHEASTERN MIDDLE TENNESSEE

CITY           SKY/WX    TMP DP  RH WIND       PRES   REMARKS
FAYETTEVILLE   PTCLDY    79  64  61 E8        30.04S
TULLAHOMA      CLEAR     75  64  69 CALM      30.06S
WINCHESTER     MOCLDY    70  68  94 CALM      30.05S
$$

...SURROUNDING SITES...

CITY           SKY/WX    TMP DP  RH WIND       PRES   REMARKS
ATLANTA        MOCLDY    77  67  71 SE7       30.05R
ANNISTON       CLOUDY    81  68  64 E7        30.01R
BIRMINGHAM     CLOUDY    84  64  50 VRB5      30.02R
CHATTANOOGA    MOCLDY    82  65  56 N8        30.02R
CORINTH        FAIR      79  66  65 NE3       30.01S
DALTON         PTCLDY    77  68  73 CALM      30.03R
GADSDEN        MOCLDY    81  68  65 CALM      30.00S
GOLDEN TRNGL   CLEAR     81  68  65 N3        30.00R
HALEYVILLE     FAIR      79  69  71 CALM      30.05S
JACKSON TN     CLOUDY    81  66  60 SE3       30.02S
LEWISBURG      MOCLDY    82  69  64 CALM      30.03R
MEMPHIS        MOSUNNY   83  61  47 E6        30.00F
MURFREESBORO   FAIR      82  62  50 NE3       30.02
NASHVILLE      MOCLDY    83  62  49 SE5       30.03R
OXFORD MS      FAIR      79  64  61 CALM      30.02S
ROME           MOCLDY    78  67  68 NE6       30.02R
SAVANNAH       CLOUDY    79  70  73 CALM      30.02F
TUPELO         MOSUNNY   83  65  54 NE7       29.99S
TUSCALOOSA     MOCLDY    85  67  54 N7        29.98R
$$

...GULF COAST WEATHER...

CITY           SKY/WX    TMP DP  RH WIND       PRES   REMARKS
GULFPORT       CLOUDY    84  68  58 NE3       29.96F
PASCAGOULA     CLOUDY    79  70  74 CALM      29.97F
MOBILE         MOCLDY    79  71  76 CALM      29.99S
GULF SHORES    MOCLDY    80  69  67 CALM      29.97S
PENSACOLA      MOCLDY    81  72  74 W3        29.96S
DESTIN         MOCLDY    85  71  63 CALM      29.96R HX  90
PANAMA CITY    DRIZZLE   83  67  56 W7        29.97R
APPALACHICOLA  MOCLDY    80  68  66 W8        29.96R
$$



USA.gov is the U.S. government's official web portal to all federal, state and local government web resources and services.